• en Suisse
  • Liste des pays
  • À 7 jours
  • Température de l'eau
  • Carte satellitaire
  • Carte météo
  • Widgets météo
  • user-avatar
    Se connecter

    Météo par heure à Serdobyne

    Ce jour, 23 Avril, Lundi

    Heure Température Précipitation Vent Pression Humidité
    00:00 +5°C° 0 mm 3 m/s 739 mmHg 81%
    01:00 +4°C° 0 mm 3 m/s 739 mmHg 84%
    02:00 +4°C° 0 mm 3 m/s 739 mmHg 87%
    03:00 +3°C° 0 mm 3 m/s 740 mmHg 87%
    04:00 +3°C° 0 mm 3 m/s 740 mmHg 88%
    05:00 +2°C° 0 mm 3 m/s 741 mmHg 88%
    06:00 +3°C° 0 mm 4 m/s 741 mmHg 78%
    07:00 +4°C° 0 mm 4 m/s 742 mmHg 68%
    08:00 +5°C° 0 mm 5 m/s 742 mmHg 58%
    09:00 +6°C° 0 mm 5 m/s 743 mmHg 54%
    10:00 +6°C° 0 mm 5 m/s 743 mmHg 50%
    11:00 +7°C° 0 mm 5 m/s 743 mmHg 46%
    12:00 +7°C° 0 mm 5 m/s 743 mmHg 44%
    13:00 +8°C° 0 mm 5 m/s 743 mmHg 43%
    14:00 +8°C° 0 mm 5 m/s 744 mmHg 41%
    15:00 +8°C° 0 mm 5 m/s 744 mmHg 42%
    16:00 +8°C° 0 mm 4 m/s 744 mmHg 43%
    17:00 +7°C° 0 mm 4 m/s 744 mmHg 43%
    18:00 +7°C° 0 mm 3 m/s 745 mmHg 46%
    19:00 +6°C° 0 mm 2 m/s 745 mmHg 50%
    20:00 +7°C° 0 mm 1 m/s 745 mmHg 53%
    21:00 +6°C° 0 mm 1 m/s 746 mmHg 54%
    22:00 +5°C° 0 mm 1 m/s 746 mmHg 56%
    23:00 +4°C° 0 mm 0 m/s 746 mmHg 58%

    Demain, 24 Avril, Mardi

    Heure Température Précipitation Vent Pression Humidité
    00:00 +4°C° 0 mm 1 m/s 746 mmHg 59%
    01:00 +4°C° 0 mm 1 m/s 746 mmHg 60%
    02:00 +4°C° 0 mm 1 m/s 746 mmHg 60%
    03:00 +4°C° 0 mm 1 m/s 746 mmHg 62%
    04:00 +2°C° 0 mm 2 m/s 746 mmHg 64%
    05:00 +2°C° 0 mm 2 m/s 747 mmHg 66%
    06:00 +4°C° 0 mm 2 m/s 747 mmHg 61%
    07:00 +5°C° 0 mm 3 m/s 747 mmHg 56%
    08:00 +8°C° 0 mm 3 m/s 747 mmHg 52%
    09:00 +10°C° 0 mm 4 m/s 746 mmHg 49%
    10:00 +11°C° 0 mm 4 m/s 746 mmHg 46%
    11:00 +12°C° 0 mm 4 m/s 746 mmHg 44%
    12:00 +12°C° 0,1 mm 4 m/s 745 mmHg 47%
    13:00 +12°C° 0,1 mm 4 m/s 745 mmHg 50%
    14:00 +12°C° 0,1 mm 4 m/s 745 mmHg 52%
    15:00 +12°C° 0,3 mm 4 m/s 744 mmHg 60%
    16:00 +11°C° 0,3 mm 4 m/s 744 mmHg 67%
    17:00 +10°C° 0,3 mm 4 m/s 743 mmHg 74%
    18:00 +10°C° 0,5 mm 4 m/s 743 mmHg 78%
    19:00 +8°C° 0,5 mm 5 m/s 743 mmHg 82%
    20:00 +7°C° 0,5 mm 5 m/s 742 mmHg 86%
    21:00 +8°C° 0,4 mm 5 m/s 742 mmHg 88%
    22:00 +8°C° 0,4 mm 4 m/s 742 mmHg 90%
    23:00 +8°C° 0,4 mm 4 m/s 741 mmHg 93%

    Après-demain, 25 Avril, Mercredi

    Heure Température Précipitation Vent Pression Humidité
    00:00 +8°C° 0,1 mm 4 m/s 741 mmHg 94%
    01:00 +10°C° 0,1 mm 4 m/s 741 mmHg 95%
    02:00 +10°C° 0,1 mm 4 m/s 740 mmHg 96%
    03:00 +8°C° 0 mm 4 m/s 741 mmHg 95%
    04:00 +8°C° 0 mm 4 m/s 741 mmHg 95%
    05:00 +8°C° 0 mm 4 m/s 741 mmHg 95%
    06:00 +8°C° 0 mm 4 m/s 741 mmHg 91%
    07:00 +10°C° 0 mm 4 m/s 742 mmHg 87%
    08:00 +11°C° 0 mm 4 m/s 742 mmHg 84%
    09:00 +12°C° 0 mm 5 m/s 742 mmHg 76%
    10:00 +14°C° 0 mm 5 m/s 742 mmHg 68%
    11:00 +16°C° 0 mm 6 m/s 742 mmHg 59%
    12:00 +16°C° 0 mm 6 m/s 742 mmHg 57%
    13:00 +17°C° 0 mm 6 m/s 742 mmHg 54%
    14:00 +17°C° 0 mm 6 m/s 742 mmHg 51%
    15:00 +17°C° 0 mm 5 m/s 742 mmHg 54%
    16:00 +18°C° 0 mm 4 m/s 742 mmHg 58%
    17:00 +17°C° 0 mm 4 m/s 742 mmHg 62%
    18:00 +16°C° 0 mm 3 m/s 743 mmHg 66%
    19:00 +14°C° 0 mm 3 m/s 743 mmHg 70%
    20:00 +13°C° 0 mm 3 m/s 743 mmHg 74%
    21:00 +13°C° 0 mm 3 m/s 743 mmHg 76%
    22:00 +12°C° 0 mm 3 m/s 743 mmHg 78%
    23:00 +12°C° 0 mm 4 m/s 743 mmHg 80%

    26 Avril, Jeudi

    Heure Température Précipitation Vent Pression Humidité
    00:00 +12°C° 0 mm 4 m/s 743 mmHg 80%
    01:00 +12°C° 0 mm 4 m/s 742 mmHg 80%
    02:00 +12°C° 0 mm 4 m/s 742 mmHg 80%
    03:00 +12°C° 0 mm 5 m/s 742 mmHg 78%
    04:00 +12°C° 0 mm 5 m/s 742 mmHg 77%
    05:00 +12°C° 0 mm 5 m/s 741 mmHg 76%
    06:00 +14°C° 0 mm 6 m/s 741 mmHg 70%
    07:00 +16°C° 0 mm 7 m/s 741 mmHg 64%
    08:00 +18°C° 0 mm 9 m/s 741 mmHg 58%
    09:00 +19°C° 0,1 mm 9 m/s 741 mmHg 57%
    10:00 +19°C° 0,1 mm 9 m/s 741 mmHg 57%
    11:00 +21°C° 0,1 mm 9 m/s 740 mmHg 56%
    12:00 +21°C° 0,6 mm 9 m/s 740 mmHg 57%
    13:00 +21°C° 0,6 mm 9 m/s 740 mmHg 58%
    14:00 +22°C° 0,6 mm 9 m/s 740 mmHg 59%
    15:00 +21°C° 0,6 mm 8 m/s 740 mmHg 63%
    16:00 +20°C° 0,6 mm 7 m/s 740 mmHg 66%
    17:00 +19°C° 0,6 mm 5 m/s 741 mmHg 69%
    18:00 +16°C° 0 mm 5 m/s 742 mmHg 71%
    19:00 +14°C° 0 mm 4 m/s 742 mmHg 73%
    20:00 +13°C° 0 mm 4 m/s 743 mmHg 75%
    21:00 +12°C° 0 mm 3 m/s 744 mmHg 76%
    22:00 +11°C° 0 mm 3 m/s 744 mmHg 77%
    23:00 +10°C° 0 mm 2 m/s 745 mmHg 78%

    27 Avril, Vendredi

    Heure Température Précipitation Vent Pression Humidité
    00:00 +9°C° 0 mm 2 m/s 745 mmHg 77%
    01:00 +9°C° 0 mm 2 m/s 746 mmHg 76%
    02:00 +9°C° 0 mm 1 m/s 746 mmHg 76%
    03:00 +9°C° 0 mm 1 m/s 746 mmHg 75%
    04:00 +9°C° 0 mm 1 m/s 747 mmHg 74%
    05:00 +8°C° 0 mm 0 m/s 747 mmHg 73%
    06:00 +11°C° 0 mm 1 m/s 747 mmHg 67%
    07:00 +13°C° 0 mm 1 m/s 747 mmHg 61%
    08:00 +15°C° 0 mm 2 m/s 748 mmHg 54%
    09:00 +16°C° 0 mm 3 m/s 747 mmHg 50%
    10:00 +17°C° 0 mm 3 m/s 747 mmHg 46%
    11:00 +18°C° 0 mm 4 m/s 747 mmHg 42%
    12:00 +19°C° 0 mm 3 m/s 747 mmHg 41%
    13:00 +19°C° 0 mm 3 m/s 746 mmHg 40%
    14:00 +20°C° 0 mm 3 m/s 746 mmHg 39%
    15:00 +20°C° 0 mm 3 m/s 746 mmHg 42%
    16:00 +20°C° 0 mm 3 m/s 745 mmHg 45%
    17:00 +20°C° 0 mm 2 m/s 745 mmHg 49%
    18:00 +18°C° 0 mm 3 m/s 745 mmHg 51%
    19:00 +17°C° 0 mm 3 m/s 745 mmHg 53%
    20:00 +15°C° 0 mm 4 m/s 745 mmHg 55%
    21:00 +15°C° 0,1 mm 4 m/s 744 mmHg 56%
    22:00 +15°C° 0,1 mm 5 m/s 744 mmHg 57%
    23:00 +14°C° 0,1 mm 5 m/s 744 mmHg 59%

    28 Avril, Samedi

    Heure Température Précipitation Vent Pression Humidité
    00:00 +14°C° 0,2 mm 5 m/s 744 mmHg 65%
    01:00 +14°C° 0,2 mm 4 m/s 744 mmHg 71%
    02:00 +13°C° 0,2 mm 4 m/s 744 mmHg 78%
    03:00 +13°C° 0,1 mm 4 m/s 744 mmHg 83%
    04:00 +12°C° 0,1 mm 3 m/s 744 mmHg 88%
    05:00 +12°C° 0,1 mm 3 m/s 745 mmHg 92%
    06:00 +13°C° 0 mm 4 m/s 745 mmHg 87%
    07:00 +13°C° 0 mm 4 m/s 746 mmHg 81%
    08:00 +14°C° 0 mm 4 m/s 746 mmHg 75%
    09:00 +17°C° 0 mm 4 m/s 746 mmHg 68%
    10:00 +18°C° 0 mm 4 m/s 747 mmHg 61%
    11:00 +19°C° 0 mm 3 m/s 747 mmHg 54%
    12:00 +19°C° 0 mm 4 m/s 747 mmHg 51%
    13:00 +20°C° 0 mm 4 m/s 747 mmHg 47%
    14:00 +20°C° 0 mm 4 m/s 747 mmHg 43%
    15:00 +19°C° 0 mm 4 m/s 747 mmHg 45%
    16:00 +19°C° 0 mm 3 m/s 747 mmHg 46%
    17:00 +18°C° 0 mm 3 m/s 747 mmHg 48%
    18:00 +16°C° 0 mm 3 m/s 747 mmHg 52%
    19:00 +14°C° 0 mm 3 m/s 748 mmHg 55%
    20:00 +13°C° 0 mm 2 m/s 748 mmHg 59%
    21:00 +12°C° 0 mm 2 m/s 748 mmHg 60%
    22:00 +11°C° 0 mm 3 m/s 749 mmHg 62%
    23:00 +10°C° 0 mm 3 m/s 749 mmHg 63%
    Voir plus